Location: Krasnoyarskiy Pitomnik
(51.1333°N, 71.6167°E)
Time: 10:20:01
(UTC+00:00)

Cosmos 1943 Rocket - Pass Details

Date: 22 October 2021
Orbit: 811 x 844 km, 71.0° (Epoch: 06 December)

Event Time Altitude Azimuth Distance (km) Brightness Sun altitude
Rises 14:13:19 0° 326° (NW) 3,414 6.0 -20.5°
Reaches altitude 10° 14:17:26 10° 354° (N) 2,478 4.8 -21.2°
Maximum altitude 14:19:52 13° 20° (NNE) 2,288 4.3 -21.6°
Enters shadow 14:20:59 12° 32° (NNE) 2,329 4.3 -21.7°
